STARLINK-32563

Last updated on Thu Nov 21 2024 00:02:06 GMT+0000 (Coordinated Universal Time)

1 61934U 24207Y 24325.58335648 -.00860036 23001-3 -24695-2 0 9998 2 61934 43.0021 96.4821 0001695 289.3215 147.8344 15.92192328 2449
UTC large
Height (km)
Speed (km/s)
/
Latitude / Longitude
Inclination (degrees)
Orbital Period (minutes)
Azimuth
Elevation
Range (km)
Doppler Factor

Next 0 passes for location: London (51.5072 / 0.1276)

Sorry there are no passes over London.